Location: Champignolles
(47.0543°N, 4.5663°E)
Time: 07:26:46
(UTC+00:00)

Cosmos 923 Rocket - Pass Details

Date: 19 April 2021
Orbit: 759 x 785 km, 74.0° (Epoch: 13 May)

Event Time Altitude Azimuth Distance (km) Brightness Sun altitude
Rises 00:34:29 0° 346° (NNW) 3,230 8.1 -30.5°
Reaches altitude 10° 00:37:21 10° 1° (N) 2,302 7.3 -30.4°
Maximum altitude 00:41:28 23° 53° (NE) 1,584 6.1 -30.2°
Enters shadow 00:45:05 12° 101° (ESE) 2,161 6.4 -30.0°
